Weather History for Oscoda, MI

Change the Weather History Date:

Sunday, May 26, 2013

  Actual Average Record
Temperature  
Mean Temperature 46 °F -  
Max Temperature 57 °F 62 °F 87 °F (2014)
Min Temperature 34 °F 43 °F 34 °F (2013)
Degree Days  
Heating Degree Days 20    
Moisture  
Dew Point 32 °F    
Average Humidity 58    
Maximum Humidity 91    
Minimum Humidity 33    
Precipitation  
Precipitation 0.00 in - - ()
Sea Level Pressure  
Sea Level Pressure 30.31 in    
Wind  
Wind Speed 4 mph (East)    
Max Wind Speed 10 mph    
Max Gust Speed -    
Visibility 10 miles    
Events      
Averages and records for this station are not official NWS values.
T = Trace of Precipitation, MM = Missing Value Source: NWS Daily Summary

Daily Weather History Graph

Daily Weather History Graph

Search for Another Location

Airport:

Trip Planner

Search our weather history database for the weather conditions in past years. The results will help you decide how hot, cold, wet, or windy it might be!

Date:

Astronomy

May. 26, 2013 Rise Set
Actual Time 5:55 AM EDT 9:06 PM EDT
Civil Twilight 5:20 AM EDT 9:41 PM EDT
Nautical Twilight 4:35 AM EDT 10:26 PM EDT
Astronomical Twilight 3:40 AM EDT 11:22 PM EDT
Moon 10:51 PM EDT (5/26) 7:24 AM EDT (5/26)
Length of Visible Light 16h 20m
Length of Day
15h 10m
Waning Gibbous, 97% of the Moon is Illuminated
May 26
Waning Gibbous
May 31
Last Quarter
Jun 8
New
Jun 16
First Quarter
Jun 23
Full

Hourly Weather History & Observations

Time (EDT) Temp. Windchill Dew Point Humidity Pressure Visibility Wind Dir Wind Speed Gust Speed Precip Events Conditions
12:14 AM 35.6 °F 31.7 °F 32.0 °F 87% 30.31 in 10.0 mi SW 4.6 mph - N/A   Clear
12:34 AM 37.8 °F 35.3 °F 33.6 °F 85% 30.31 in 10.0 mi WSW 3.5 mph - N/A   Clear
12:54 AM 38.5 °F - 33.8 °F 83% 30.31 in 10.0 mi Calm Calm - N/A   Clear
1:14 AM 36.1 °F - 32.2 °F 86% 30.31 in 10.0 mi Calm Calm - N/A   Clear
1:34 AM 35.8 °F - 31.5 °F 84% 30.30 in 10.0 mi Calm Calm - N/A   Clear
1:54 AM 35.4 °F - 32.4 °F 89% 30.30 in 10.0 mi Calm Calm - N/A   Clear
2:14 AM 37.2 °F - 33.1 °F 85% 30.30 in 10.0 mi Calm Calm - N/A   Clear
2:33 AM 35.6 °F 32.8 °F 33.1 °F 91% 30.30 in 10.0 mi West 3.5 mph - N/A   Clear
2:54 AM 34.7 °F - 31.3 °F 87% 30.30 in 10.0 mi Calm Calm - N/A   Clear
3:14 AM 36.9 °F - 32.4 °F 84% 30.30 in 10.0 mi Calm Calm - N/A   Clear
3:33 AM 37.8 °F - 32.5 °F 81% 30.30 in 10.0 mi Calm Calm - N/A   Clear
3:54 AM 37.8 °F - 32.2 °F 80% 30.30 in 10.0 mi Calm Calm - N/A   Clear
4:14 AM 36.0 °F - 31.8 °F 85% 30.31 in 10.0 mi Calm Calm - N/A   Clear
4:33 AM 35.1 °F - 31.6 °F 87% 30.31 in 10.0 mi Calm Calm - N/A   Clear
4:54 AM 35.6 °F - 32.0 °F 87% 30.31 in 10.0 mi Calm Calm - N/A   Clear
5:14 AM 36.7 °F - 32.0 °F 83% 30.31 in 10.0 mi Calm Calm - N/A   Clear
5:33 AM 36.7 °F - 32.2 °F 84% 30.31 in 10.0 mi Calm Calm - N/A   Clear
5:54 AM 36.3 °F 33.7 °F 32.0 °F 84% 30.31 in 10.0 mi NNW 3.5 mph - N/A   Clear
6:14 AM 35.6 °F 32.8 °F 32.0 °F 87% 30.32 in 10.0 mi NNW 3.5 mph - N/A   Clear
6:33 AM 36.9 °F 34.3 °F 32.9 °F 86% 30.32 in 10.0 mi NNW 3.5 mph - N/A   Clear
6:54 AM 38.1 °F 34.6 °F 34.0 °F 85% 30.33 in 10.0 mi NNW 4.6 mph - N/A   Clear
7:14 AM 40.5 °F 36.5 °F 35.1 °F 81% 30.34 in 10.0 mi NNW 5.8 mph - N/A   Clear
7:34 AM 42.6 °F - 36.1 °F 78% 30.35 in 10.0 mi Calm Calm - N/A   Clear
7:54 AM 45.5 °F 44.2 °F 36.9 °F 72% 30.35 in 10.0 mi NNW 3.5 mph - N/A   Clear
8:14 AM 47.3 °F - 37.2 °F 68% 30.35 in 10.0 mi North 3.5 mph - N/A   Clear
8:34 AM 48.7 °F - 37.2 °F 64% 30.35 in 10.0 mi NNE 4.6 mph - N/A   Clear
8:54 AM 51.3 °F - 37.4 °F 59% 30.34 in 10.0 mi Calm Calm - N/A   Clear
9:14 AM 53.6 °F - 34.0 °F 47% 30.36 in 10.0 mi NE 5.8 mph - N/A   Clear
9:34 AM 53.8 °F - 33.6 °F 46% 30.37 in 10.0 mi NE 8.1 mph - N/A   Clear
9:54 AM 54.1 °F - 31.8 °F 43% 30.37 in 10.0 mi NNE 6.9 mph - N/A   Clear
10:14 AM 54.7 °F - 31.8 °F 42% 30.36 in 10.0 mi ENE 3.5 mph - N/A   Clear
10:34 AM 55.4 °F - 30.9 °F 39% 30.36 in 10.0 mi ENE 3.5 mph - N/A   Clear
10:54 AM 55.9 °F - 31.5 °F 39% 30.35 in 10.0 mi East 5.8 mph - N/A   Clear
11:14 AM 57.2 °F - 31.8 °F 38% 30.35 in 10.0 mi East 6.9 mph - N/A   Clear
11:34 AM 57.4 °F - 31.8 °F 38% 30.34 in 10.0 mi East 8.1 mph - N/A   Clear
11:54 AM 57.4 °F - 32.0 °F 38% 30.34 in 10.0 mi East 9.2 mph - N/A   Clear
12:13 PM 57.4 °F - 32.2 °F 39% 30.34 in 10.0 mi East 9.2 mph - N/A   Clear
12:34 PM 57.2 °F - 33.4 °F 41% 30.34 in 10.0 mi East 10.4 mph - N/A   Clear
12:54 PM 55.9 °F - 33.8 °F 43% 30.34 in 10.0 mi East 9.2 mph - N/A   Clear
1:13 PM 55.8 °F - 32.9 °F 42% 30.34 in 10.0 mi East 10.4 mph - N/A   Clear
1:34 PM 55.9 °F - 32.4 °F 41% 30.34 in 10.0 mi East 10.4 mph - N/A   Clear
1:54 PM 56.3 °F - 33.8 °F 43% 30.34 in 10.0 mi East 9.2 mph - N/A   Clear
2:14 PM 55.6 °F - 33.4 °F 43% 30.33 in 10.0 mi East 9.2 mph - N/A   Clear
2:34 PM 55.6 °F - 32.5 °F 42% 30.33 in 10.0 mi East 9.2 mph - N/A   Clear
2:54 PM 55.0 °F - 32.4 °F 42% 30.33 in 10.0 mi East 10.4 mph - N/A   Clear
3:14 PM 55.4 °F - 32.5 °F 42% 30.33 in 10.0 mi ESE 9.2 mph - N/A   Clear
3:34 PM 55.4 °F - 30.7 °F 39% 30.33 in 10.0 mi East 9.2 mph - N/A   Clear
3:53 PM 56.3 °F - 30.0 °F 37% 30.32 in 10.0 mi East 9.2 mph - N/A   Clear
4:14 PM 55.8 °F - 28.8 °F 36% 30.32 in 10.0 mi ESE 6.9 mph - N/A   Clear
4:34 PM 56.3 °F - 28.0 °F 34% 30.31 in 10.0 mi East 8.1 mph - N/A   Clear
4:54 PM 56.8 °F - 28.0 °F 33% 30.30 in 10.0 mi East 6.9 mph - N/A   Clear
5:14 PM 56.3 °F - 27.1 °F 33% 30.30 in 10.0 mi East 6.9 mph - N/A   Clear
5:34 PM 55.9 °F - 28.2 °F 35% 30.29 in 10.0 mi East 5.8 mph - N/A   Clear
5:54 PM 55.9 °F - 27.0 °F 33% 30.29 in 10.0 mi East 4.6 mph - N/A   Clear
6:14 PM 55.9 °F - 26.8 °F 33% 30.28 in 10.0 mi East 5.8 mph - N/A   Clear
6:33 PM 55.8 °F - 26.8 °F 33% 30.28 in 10.0 mi East 4.6 mph - N/A   Clear
6:54 PM 55.8 °F - 26.8 °F 33% 30.27 in 10.0 mi ENE 4.6 mph - N/A   Clear
7:14 PM 55.8 °F - 27.3 °F 34% 30.27 in 10.0 mi ESE 3.5 mph - N/A   Clear
7:33 PM 55.4 °F - 27.1 °F 34% 30.27 in 10.0 mi East 3.5 mph - N/A   Clear
7:54 PM 54.9 °F - 26.8 °F 34% 30.26 in 10.0 mi ENE 3.5 mph - N/A   Clear
8:14 PM 54.5 °F - 26.8 °F 34% 30.26 in 10.0 mi South 3.5 mph - N/A   Clear
8:33 PM 54.5 °F - 26.1 °F 33% 30.26 in 10.0 mi Calm Calm - N/A   Clear
8:54 PM 53.6 °F - 26.6 °F 35% 30.26 in 10.0 mi South 3.5 mph - N/A   Clear
9:14 PM 51.4 °F - 30.0 °F 44% 30.26 in 10.0 mi South 3.5 mph - N/A   Clear
9:33 PM 46.6 °F - 31.8 °F 56% 30.26 in 10.0 mi Calm Calm - N/A   Clear
9:54 PM 46.8 °F - 32.0 °F 57% 30.26 in 10.0 mi SW 3.5 mph - N/A   Clear
10:14 PM 44.1 °F 42.5 °F 33.8 °F 67% 30.26 in 10.0 mi SW 3.5 mph - N/A   Clear
10:33 PM 42.8 °F 41.1 °F 33.1 °F 69% 30.26 in 10.0 mi SW 3.5 mph - N/A   Clear
10:54 PM 42.6 °F 40.9 °F 34.3 °F 73% 30.26 in 10.0 mi SW 3.5 mph - N/A   Clear
11:14 PM 41.9 °F - 33.6 °F 72% 30.26 in 10.0 mi Calm Calm - N/A   Clear
11:33 PM 40.8 °F - 32.5 °F 72% 30.26 in 10.0 mi Calm Calm - N/A   Clear
11:54 PM 37.4 °F 33.8 °F 33.3 °F 85% 30.26 in 10.0 mi WSW 4.6 mph - N/A   Clear